{"data":{"norad_id":43602,"epoch":"2026-05-24T06:47:17.670624Z","epoch_age_seconds":137031,"freshness":"FRESH","line1":"1 43602U 18067A   26144.28284341  .00000054  00000+0  00000+0 0  9993","line2":"2 43602  54.1791 181.8510 0007779  30.2121 329.8983  1.86227821 52676","mean_motion":1.86227821,"eccentricity":0.0007779,"inclination_deg":54.1791,"raan_deg":181.851,"arg_perigee_deg":30.2121,"mean_anomaly_deg":329.8983,"bstar":0,"rev_number":5267,"period_min":773.24644205551,"perigee_km":21506.660673378,"apogee_km":21550.077615637,"semimajor_km":27906.506144507,"source":"CELESTRAK","updated_at":"2026-05-25T13:38:24.219180Z"}}